Wetterdaten: Sonntag, 01.07.2012
Datum Zeit Temperatur Luftfeuchte Regen Wind Richtung Richtung Taupunkt Windchill Windben
01.07.2012 00:00 19,7 C 72 % 0,0 l/m 1,1 km/h (1 Bft) N 360 14,5 C 19,3 C 2,1 km/h (1 Bft)
01.07.2012 00:05 19,4 C 72 % 0,0 l/m 0,5 km/h (0 Bft) O 90 14,2 C 19,3 C 0,0 km/h (0 Bft)
01.07.2012 00:10 19,7 C 71 % 0,0 l/m 0,5 km/h (0 Bft) N 360 14,3 C 19,1 C 0,0 km/h (0 Bft)
01.07.2012 00:15 19,5 C 72 % 0,0 l/m 0,2 km/h (0 Bft) N-NW 337 14,3 C 19,1 C 0,0 km/h (0 Bft)
01.07.2012 00:20 19,0 C 75 % 0,0 l/m 0,3 km/h (0 Bft) N-NO 22 14,5 C 18,8 C 0,0 km/h (0 Bft)
01.07.2012 00:25 18,5 C 76 % 0,0 l/m 0,6 km/h (0 Bft) N-NO 22 14,2 C 18,5 C 0,0 km/h (0 Bft)
01.07.2012 00:30 18,0 C 77 % 0,0 l/m 0,3 km/h (0 Bft) N-NW 337 13,9 C 18,1 C 2,9 km/h (1 Bft)
01.07.2012 00:35 18,3 C 77 % 0,0 l/m 0,5 km/h (0 Bft) N-NW 337 14,2 C 17,9 C 2,4 km/h (1 Bft)
01.07.2012 00:40 18,4 C 77 % 0,0 l/m 0,8 km/h (0 Bft) S 180 14,3 C 17,8 C 3,2 km/h (1 Bft)
01.07.2012 00:45 18,1 C 78 % 0,0 l/m 1,0 km/h (0 Bft) NO 45 14,2 C 17,6 C 2,1 km/h (1 Bft)
01.07.2012 00:50 17,9 C 78 % 0,0 l/m 0,5 km/h (0 Bft) NO 45 14,0 C 17,5 C 0,0 km/h (0 Bft)
01.07.2012 00:55 17,7 C 79 % 0,0 l/m 0,5 km/h (0 Bft) N-NW 337 14,0 C 17,4 C 2,3 km/h (1 Bft)
01.07.2012 01:00 17,5 C 80 % 0,0 l/m 1,1 km/h (1 Bft) W-NW 292 14,0 C 17,5 C 3,1 km/h (1 Bft)
01.07.2012 01:05 17,5 C 80 % 0,0 l/m 1,4 km/h (1 Bft) N-NO 22 14,0 C 17,6 C 0,0 km/h (0 Bft)
01.07.2012 01:10 17,4 C 79 % 0,0 l/m 0,6 km/h (0 Bft) S 180 13,7 C 17,3 C 3,5 km/h (1 Bft)
01.07.2012 01:15 17,1 C 79 % 0,0 l/m 1,1 km/h (1 Bft) O-SO 112 13,4 C 17,1 C 3,9 km/h (1 Bft)
01.07.2012 01:20 17,3 C 82 % 0,0 l/m 1,6 km/h (1 Bft) NO 45 14,2 C 17,0 C 4,0 km/h (1 Bft)
01.07.2012 01:25 17,3 C 82 % 0,0 l/m 0,8 km/h (0 Bft) N-NO 22 14,2 C 17,0 C 0,0 km/h (0 Bft)
01.07.2012 01:30 17,3 C 79 % 0,0 l/m 0,0 km/h (0 Bft) SO 135 13,6 C 16,7 C 0,0 km/h (0 Bft)
01.07.2012 01:35 16,8 C 80 % 0,0 l/m 0,0 km/h (0 Bft) O-SO 112 13,3 C 16,6 C 0,0 km/h (0 Bft)
01.07.2012 01:40 16,3 C 83 % 0,0 l/m 0,2 km/h (0 Bft) N 360 13,4 C 16,2 C 2,1 km/h (1 Bft)
01.07.2012 01:45 16,3 C 83 % 0,0 l/m 0,3 km/h (0 Bft) SW 225 13,4 C 16,0 C 0,0 km/h (0 Bft)
01.07.2012 01:50 16,2 C 82 % 0,0 l/m 1,0 km/h (0 Bft) O-NO 67 13,1 C 16,0 C 0,0 km/h (0 Bft)
01.07.2012 01:55 16,4 C 82 % 0,0 l/m 0,8 km/h (0 Bft) O 90 13,3 C 16,0 C 0,0 km/h (0 Bft)
01.07.2012 02:00 16,4 C 82 % 0,0 l/m 0,8 km/h (0 Bft) O-SO 112 13,3 C 16,1 C 5,3 km/h (1 Bft)
01.07.2012 02:05 16,5 C 82 % 0,0 l/m 2,1 km/h (1 Bft) SO 135 13,4 C 16,4 C 6,4 km/h (2 Bft)
01.07.2012 02:10 16,7 C 82 % 0,0 l/m 4,3 km/h (1 Bft) O-SO 112 13,6 C 16,7 C 8,4 km/h (2 Bft)
01.07.2012 02:15 17,1 C 81 % 0,0 l/m 4,8 km/h (1 Bft) SO 135 13,8 C 17,1 C 4,7 km/h (1 Bft)
01.07.2012 02:20 17,8 C 74 % 0,0 l/m 7,1 km/h (2 Bft) S 180 13,1 C 17,5 C 16,9 km/h (3 Bft)
01.07.2012 02:25 17,9 C 72 % 0,0 l/m 8,2 km/h (2 Bft) S-SO 157 12,8 C 17,2 C 14,0 km/h (3 Bft)
01.07.2012 02:30 17,5 C 72 % 0,0 l/m 8,4 km/h (2 Bft) O-SO 112 12,4 C 17,0 C 5,3 km/h (1 Bft)
01.07.2012 02:35 17,3 C 73 % 0,0 l/m 7,4 km/h (2 Bft) SO 135 12,4 C 17,1 C 9,0 km/h (2 Bft)
01.07.2012 02:40 16,9 C 74 % 0,0 l/m 5,0 km/h (1 Bft) S 180 12,2 C 17,3 C 2,1 km/h (1 Bft)
01.07.2012 02:45 16,8 C 74 % 0,0 l/m 3,5 km/h (1 Bft) O-SO 112 12,1 C 17,0 C 1,9 km/h (1 Bft)
01.07.2012 02:50 16,7 C 74 % 0,0 l/m 1,3 km/h (1 Bft) S-SW 202 12,0 C 16,6 C 1,9 km/h (1 Bft)
01.07.2012 02:55 16,6 C 75 % 0,0 l/m 0,5 km/h (0 Bft) N-NO 22 12,1 C 16,4 C 2,7 km/h (1 Bft)
01.07.2012 03:00 16,4 C 76 % 0,0 l/m 0,5 km/h (0 Bft) NO 45 12,2 C 16,2 C 0,0 km/h (0 Bft)
01.07.2012 03:05 16,2 C 76 % 0,0 l/m 0,5 km/h (0 Bft) N-NO 22 12,0 C 16,1 C 1,8 km/h (1 Bft)
01.07.2012 03:10 16,1 C 78 % 0,0 l/m 0,3 km/h (0 Bft) N 360 12,3 C 15,8 C 1,9 km/h (1 Bft)
01.07.2012 03:15 16,5 C 77 % 0,0 l/m 1,4 km/h (1 Bft) NO 45 12,5 C 15,8 C 3,5 km/h (1 Bft)
01.07.2012 03:20 16,3 C 77 % 0,0 l/m 1,6 km/h (1 Bft) N-NO 22 12,3 C 16,0 C 0,0 km/h (0 Bft)
01.07.2012 03:25 16,4 C 77 % 0,0 l/m 0,6 km/h (0 Bft) N 360 12,4 C 15,9 C 0,0 km/h (0 Bft)
01.07.2012 03:30 16,2 C 77 % 0,0 l/m 0,5 km/h (0 Bft) N 360 12,2 C 15,9 C 3,4 km/h (1 Bft)
01.07.2012 03:35 16,0 C 79 % 0,0 l/m 1,4 km/h (1 Bft) NW 315 12,4 C 15,8 C 2,4 km/h (1 Bft)
01.07.2012 03:40 16,0 C 78 % 0,0 l/m 2,6 km/h (1 Bft) NO 45 12,2 C 15,7 C 2,3 km/h (1 Bft)
01.07.2012 03:45 16,0 C 78 % 0,0 l/m 2,6 km/h (1 Bft) N 360 12,2 C 15,7 C 3,2 km/h (1 Bft)
01.07.2012 03:50 15,6 C 79 % 0,0 l/m 2,4 km/h (1 Bft) N-NW 337 12,0 C 15,7 C 3,1 km/h (1 Bft)
01.07.2012 03:55 15,5 C 79 % 0,0 l/m 2,6 km/h (1 Bft) NO 45 11,9 C 15,8 C 3,9 km/h (1 Bft)
01.07.2012 04:00 15,5 C 79 % 0,0 l/m 2,7 km/h (1 Bft) N 360 11,9 C 15,8 C 1,9 km/h (1 Bft)
01.07.2012 04:05 15,5 C 80 % 0,0 l/m 2,4 km/h (1 Bft) W 270 12,1 C 15,7 C 2,9 km/h (1 Bft)
01.07.2012 04:10 15,4 C 81 % 0,0 l/m 2,3 km/h (1 Bft) N 360 12,2 C 15,7 C 4,5 km/h (1 Bft)
01.07.2012 04:15 15,3 C 81 % 0,0 l/m 2,7 km/h (1 Bft) W 270 12,1 C 15,7 C 2,4 km/h (1 Bft)
01.07.2012 04:20 15,0 C 81 % 0,0 l/m 1,8 km/h (1 Bft) SO 135 11,8 C 15,6 C 0,0 km/h (0 Bft)
01.07.2012 04:25 15,0 C 83 % 0,0 l/m 1,0 km/h (0 Bft) N-NO 22 12,1 C 15,3 C 3,5 km/h (1 Bft)
01.07.2012 04:30 14,9 C 83 % 0,0 l/m 1,4 km/h (1 Bft) W-NW 292 12,0 C 15,3 C 3,1 km/h (1 Bft)
01.07.2012 04:35 15,0 C 83 % 0,0 l/m 2,3 km/h (1 Bft) NW 315 12,1 C 15,3 C 1,9 km/h (1 Bft)
01.07.2012 04:40 15,0 C 83 % 0,0 l/m 1,3 km/h (1 Bft) NW 315 12,1 C 15,1 C 2,1 km/h (1 Bft)
01.07.2012 04:45 15,1 C 83 % 0,0 l/m 1,1 km/h (1 Bft) N-NW 337 12,2 C 15,0 C 1,8 km/h (1 Bft)
01.07.2012 04:50 14,9 C 83 % 0,0 l/m 1,1 km/h (1 Bft) NO 45 12,0 C 15,0 C 0,0 km/h (0 Bft)
01.07.2012 04:55 14,8 C 82 % 0,0 l/m 0,6 km/h (0 Bft) N 360 11,8 C 14,8 C 0,0 km/h (0 Bft)
01.07.2012 05:00 14,7 C 82 % 0,0 l/m 0,0 km/h (0 Bft) NO 45 11,7 C 14,5 C 0,0 km/h (0 Bft)
01.07.2012 05:05 14,8 C 82 % 0,0 l/m 0,3 km/h (0 Bft) N-NO 22 11,8 C 14,4 C 0,0 km/h (0 Bft)
01.07.2012 05:10 15,0 C 82 % 0,0 l/m 0,6 km/h (0 Bft) N-NO 22 12,0 C 14,4 C 2,3 km/h (1 Bft)
01.07.2012 05:15 15,0 C 81 % 0,0 l/m 0,8 km/h (0 Bft) NO 45 11,8 C 14,4 C 1,9 km/h (1 Bft)
01.07.2012 05:20 14,7 C 82 % 0,0 l/m 0,5 km/h (0 Bft) N-NO 22 11,7 C 14,5 C 1,9 km/h (1 Bft)
01.07.2012 05:25 14,9 C 82 % 0,0 l/m 0,2 km/h (0 Bft) N-NO 22 11,9 C 14,4 C 0,0 km/h (0 Bft)
01.07.2012 05:30 14,9 C 82 % 0,0 l/m 0,2 km/h (0 Bft) N-NO 22 11,9 C 14,4 C 0,0 km/h (0 Bft)
01.07.2012 05:35 14,9 C 81 % 0,0 l/m 0,2 km/h (0 Bft) N 360 11,7 C 14,4 C 0,0 km/h (0 Bft)
01.07.2012 05:40 14,4 C 81 % 0,0 l/m 0,2 km/h (0 Bft) N 360 11,2 C 14,2 C 0,0 km/h (0 Bft)
01.07.2012 05:45 14,2 C 82 % 0,0 l/m 0,2 km/h (0 Bft) N-NO 22 11,2 C 14,0 C 0,0 km/h (0 Bft)
01.07.2012 05:50 14,4 C 83 % 0,0 l/m 0,5 km/h (0 Bft) N 360 11,5 C 14,0 C 1,9 km/h (1 Bft)
01.07.2012 05:55 14,7 C 83 % 0,0 l/m 0,6 km/h (0 Bft) NW 315 11,8 C 14,2 C 0,0 km/h (0 Bft)
01.07.2012 06:00 14,7 C 83 % 0,0 l/m 0,5 km/h (0 Bft) N 360 11,8 C 14,3 C 0,0 km/h (0 Bft)
01.07.2012 06:05 14,6 C 82 % 0,0 l/m 0,2 km/h (0 Bft) N-NO 22 11,6 C 14,5 C 0,0 km/h (0 Bft)
01.07.2012 06:10 14,7 C 82 % 0,0 l/m 0,0 km/h (0 Bft) W-NW 292 11,7 C 14,6 C 0,0 km/h (0 Bft)
01.07.2012 06:15 14,8 C 82 % 0,0 l/m 0,0 km/h (0 Bft) N-NO 22 11,8 C 14,8 C 0,0 km/h (0 Bft)
01.07.2012 06:20 15,0 C 82 % 0,0 l/m 0,0 km/h (0 Bft) W-SW 247 12,0 C 15,1 C 0,0 km/h (0 Bft)
01.07.2012 06:25 15,3 C 82 % 0,0 l/m 0,0 km/h (0 Bft) N 360 12,2 C 15,3 C 0,0 km/h (0 Bft)
01.07.2012 06:30 16,3 C 80 % 0,0 l/m 0,3 km/h (0 Bft) N 360 12,8 C 15,9 C 0,0 km/h (0 Bft)
01.07.2012 06:35 16,8 C 80 % 0,0 l/m 0,3 km/h (0 Bft) S-SO 157 13,3 C 16,6 C 0,0 km/h (0 Bft)
01.07.2012 06:40 17,4 C 79 % 0,0 l/m 0,0 km/h (0 Bft) N 360 13,7 C 17,5 C 0,0 km/h (0 Bft)
01.07.2012 06:45 17,5 C 78 % 0,0 l/m 0,0 km/h (0 Bft) N-NW 337 13,6 C 18,0 C 0,0 km/h (0 Bft)
01.07.2012 06:50 18,2 C 76 % 0,0 l/m 0,0 km/h (0 Bft) W-SW 247 13,9 C 18,7 C 0,0 km/h (0 Bft)
01.07.2012 06:55 18,8 C 76 % 0,0 l/m 0,0 km/h (0 Bft) O-SO 112 14,5 C 19,1 C 0,0 km/h (0 Bft)
01.07.2012 07:00 18,9 C 73 % 0,0 l/m 0,2 km/h (0 Bft) N-NW 337 13,9 C 19,7 C 0,0 km/h (0 Bft)
01.07.2012 07:05 19,8 C 73 % 0,0 l/m 0,2 km/h (0 Bft) S-SO 157 14,8 C 20,1 C 0,0 km/h (0 Bft)
01.07.2012 07:10 20,4 C 69 % 0,0 l/m 0,0 km/h (0 Bft) N-NO 22 14,5 C 21,2 C 0,0 km/h (0 Bft)
01.07.2012 07:15 20,2 C 68 % 0,0 l/m 0,0 km/h (0 Bft) W-SW 247 14,1 C 21,7 C 0,0 km/h (0 Bft)
01.07.2012 07:20 21,0 C 69 % 0,0 l/m 0,2 km/h (0 Bft) S-SO 157 15,1 C 22,1 C 0,0 km/h (0 Bft)
01.07.2012 07:25 21,7 C 66 % 0,0 l/m 0,3 km/h (0 Bft) W 270 15,1 C 22,5 C 2,1 km/h (1 Bft)
01.07.2012 07:30 22,2 C 67 % 0,0 l/m 0,2 km/h (0 Bft) O-SO 112 15,8 C 23,1 C 0,0 km/h (0 Bft)
01.07.2012 07:35 22,1 C 64 % 0,0 l/m 0,6 km/h (0 Bft) W 270 15,0 C 23,5 C 2,7 km/h (1 Bft)
01.07.2012 07:40 22,4 C 60 % 0,0 l/m 0,6 km/h (0 Bft) O 90 14,2 C 23,8 C 0,0 km/h (0 Bft)
01.07.2012 07:45 22,7 C 62 % 0,0 l/m 0,6 km/h (0 Bft) NO 45 15,0 C 24,3 C 1,8 km/h (1 Bft)
01.07.2012 07:50 23,1 C 59 % 0,0 l/m 1,3 km/h (1 Bft) W-NW 292 14,6 C 24,5 C 6,6 km/h (2 Bft)
01.07.2012 07:55 23,0 C 58 % 0,0 l/m 1,9 km/h (1 Bft) W-SW 247 14,3 C 24,2 C 1,8 km/h (1 Bft)
01.07.2012 08:00 23,1 C 57 % 0,0 l/m 3,2 km/h (1 Bft) N-NW 337 14,1 C 24,0 C 4,0 km/h (1 Bft)
01.07.2012 08:05 23,1 C 57 % 0,0 l/m 3,1 km/h (1 Bft) W 270 14,1 C 24,1 C 3,9 km/h (1 Bft)
01.07.2012 08:10 23,1 C 58 % 0,0 l/m 4,0 km/h (1 Bft) W 270 14,4 C 23,8 C 8,9 km/h (2 Bft)
01.07.2012 08:15 23,1 C 57 % 0,0 l/m 5,1 km/h (1 Bft) NW 315 14,1 C 23,4 C 4,5 km/h (1 Bft)
01.07.2012 08:20 22,9 C 58 % 0,0 l/m 6,4 km/h (2 Bft) W-SW 247 14,2 C 23,2 C 10,5 km/h (2 Bft)
01.07.2012 08:25 23,2 C 58 % 0,0 l/m 6,4 km/h (2 Bft) W-SW 247 14,5 C 23,1 C 5,5 km/h (1 Bft)
01.07.2012 08:30 23,5 C 56 % 0,0 l/m 5,3 km/h (1 Bft) W 270 14,2 C 23,5 C 3,4 km/h (1 Bft)
01.07.2012 08:35 23,3 C 55 % 0,0 l/m 5,8 km/h (2 Bft) N-NW 337 13,7 C 23,6 C 9,3 km/h (2 Bft)
01.07.2012 08:40 23,1 C 56 % 0,0 l/m 6,4 km/h (2 Bft) W-NW 292 14,3 C 23,5 C 8,2 km/h (2 Bft)
01.07.2012 08:45 23,1 C 55 % 0,0 l/m 6,0 km/h (2 Bft) W-NW 292 14,0 C 23,7 C 6,4 km/h (2 Bft)
01.07.2012 08:50 23,2 C 55 % 0,0 l/m 4,2 km/h (1 Bft) W-SW 247 15,0 C 24,5 C 6,4 km/h (2 Bft)
01.07.2012 08:55 23,3 C 54 % 0,0 l/m 4,3 km/h (1 Bft) W-NW 292 14,8 C 24,8 C 7,2 km/h (2 Bft)
01.07.2012 09:00 23,2 C 54 % 0,0 l/m 4,8 km/h (1 Bft) W-NW 292 14,8 C 25,0 C 6,8 km/h (2 Bft)
01.07.2012 09:05 23,3 C 53 % 0,0 l/m 4,5 km/h (1 Bft) W-SW 247 14,9 C 25,1 C 3,2 km/h (1 Bft)
01.07.2012 09:10 23,6 C 51 % 0,0 l/m 4,3 km/h (1 Bft) O-SO 112 14,2 C 25,8 C 3,9 km/h (1 Bft)
01.07.2012 09:15 23,6 C 52 % 0,0 l/m 4,2 km/h (1 Bft) W 270 14,7 C 25,8 C 11,6 km/h (2 Bft)
01.07.2012 09:20 24,0 C 51 % 0,0 l/m 4,2 km/h (1 Bft) NW 315 14,7 C 26,0 C 5,6 km/h (1 Bft)
01.07.2012 09:25 24,0 C 48 % 0,0 l/m 4,3 km/h (1 Bft) S-SW 202 13,8 C 26,0 C 4,5 km/h (1 Bft)
01.07.2012 09:30 24,4 C 48 % 0,0 l/m 4,5 km/h (1 Bft) W 270 14,0 C 26,3 C 5,8 km/h (2 Bft)
01.07.2012 09:35 24,5 C 46 % 0,0 l/m 4,3 km/h (1 Bft) SO 135 13,6 C 26,4 C 2,6 km/h (1 Bft)
01.07.2012 09:40 24,6 C 48 % 0,0 l/m 4,2 km/h (1 Bft) W 270 14,1 C 26,9 C 5,1 km/h (1 Bft)
01.07.2012 09:45 24,7 C 48 % 0,0 l/m 3,9 km/h (1 Bft) N-NW 337 13,9 C 27,0 C 3,7 km/h (1 Bft)
01.07.2012 09:50 25,1 C 48 % 0,0 l/m 3,7 km/h (1 Bft) N-NW 337 14,2 C 27,5 C 6,4 km/h (2 Bft)
01.07.2012 09:55 25,1 C 48 % 0,0 l/m 3,5 km/h (1 Bft) SW 225 14,3 C 27,5 C 9,2 km/h (2 Bft)
01.07.2012 10:00 25,5 C 48 % 0,0 l/m 4,3 km/h (1 Bft) W-SW 247 14,5 C 27,9 C 4,5 km/h (1 Bft)
01.07.2012 10:05 24,8 C 50 % 0,0 l/m 4,2 km/h (1 Bft) S-SW 202 13,7 C 27,9 C 1,9 km/h (1 Bft)
01.07.2012 10:10 24,9 C 51 % 0,0 l/m 4,3 km/h (1 Bft) SO 135 14,4 C 26,7 C 3,1 km/h (1 Bft)
01.07.2012 10:15 25,1 C 50 % 0,0 l/m 4,8 km/h (1 Bft) W-NW 292 14,0 C 26,6 C 5,6 km/h (1 Bft)
01.07.2012 10:20 25,5 C 48 % 0,0 l/m 5,3 km/h (1 Bft) W 270 14,4 C 27,2 C 11,3 km/h (2 Bft)
01.07.2012 10:25 25,4 C 50 % 0,0 l/m 6,1 km/h (2 Bft) W 270 14,7 C 26,8 C 7,7 km/h (2 Bft)
01.07.2012 10:30 25,8 C 46 % 0,0 l/m 6,9 km/h (2 Bft) W-SW 247 14,0 C 27,1 C 13,4 km/h (3 Bft)
01.07.2012 10:35 25,9 C 49 % 0,0 l/m 6,9 km/h (2 Bft) N-NO 22 14,9 C 27,0 C 4,7 km/h (1 Bft)
01.07.2012 10:40 26,3 C 48 % 0,0 l/m 6,3 km/h (2 Bft) W-NW 292 15,1 C 27,7 C 6,3 km/h (2 Bft)
01.07.2012 10:45 26,7 C 48 % 0,0 l/m 5,3 km/h (1 Bft) NO 45 15,3 C 28,1 C 7,1 km/h (2 Bft)
01.07.2012 10:50 26,2 C 48 % 0,0 l/m 5,3 km/h (1 Bft) W 270 14,3 C 27,8 C 6,6 km/h (2 Bft)
01.07.2012 10:55 26,7 C 47 % 0,0 l/m 5,0 km/h (1 Bft) S-SW 202 14,4 C 27,8 C 3,1 km/h (1 Bft)
01.07.2012 11:00 26,4 C 48 % 0,0 l/m 4,2 km/h (1 Bft) S-SW 202 14,5 C 28,5 C 7,9 km/h (2 Bft)
01.07.2012 11:05 27,0 C 49 % 0,0 l/m 4,5 km/h (1 Bft) N-NW 337 15,4 C 28,5 C 7,1 km/h (2 Bft)
01.07.2012 11:10 26,0 C 48 % 0,0 l/m 6,1 km/h (2 Bft) W-SW 247 14,1 C 28,0 C 6,3 km/h (2 Bft)
01.07.2012 11:15 25,1 C 49 % 0,0 l/m 5,8 km/h (2 Bft) W 270 13,6 C 27,1 C 6,4 km/h (2 Bft)
01.07.2012 11:20 25,8 C 49 % 0,0 l/m 4,7 km/h (1 Bft) SW 225 14,3 C 27,1 C 7,9 km/h (2 Bft)
01.07.2012 11:25 26,8 C 47 % 0,0 l/m 5,1 km/h (1 Bft) W-SW 247 14,5 C 27,8 C 6,4 km/h (2 Bft)
01.07.2012 11:30 26,7 C 46 % 0,0 l/m 6,6 km/h (2 Bft) W-NW 292 14,1 C 28,2 C 6,0 km/h (2 Bft)
01.07.2012 11:35 26,7 C 46 % 0,0 l/m 6,9 km/h (2 Bft) S 180 14,1 C 28,2 C 4,7 km/h (1 Bft)
01.07.2012 11:40 26,5 C 46 % 0,0 l/m 6,6 km/h (2 Bft) NW 315 13,9 C 28,3 C 10,1 km/h (2 Bft)
01.07.2012 11:45 26,6 C 46 % 0,0 l/m 7,1 km/h (2 Bft) W 270 14,0 C 27,9 C 9,2 km/h (2 Bft)
01.07.2012 11:50 26,8 C 45 % 0,0 l/m 7,1 km/h (2 Bft) W-NW 292 13,9 C 28,1 C 8,4 km/h (2 Bft)
01.07.2012 11:55 27,2 C 45 % 0,0 l/m 6,3 km/h (2 Bft) S 180 14,2 C 28,3 C 9,7 km/h (2 Bft)
01.07.2012 12:00 26,7 C 44 % 0,0 l/m 6,4 km/h (2 Bft) O-SO 112 13,4 C 28,3 C 8,0 km/h (2 Bft)
01.07.2012 12:05 27,4 C 45 % 0,0 l/m 7,6 km/h (2 Bft) NW 315 14,4 C 28,0 C 13,5 km/h (3 Bft)
01.07.2012 12:10 27,8 C 44 % 0,0 l/m 7,4 km/h (2 Bft) S-SW 202 14,4 C 28,0 C 4,5 km/h (1 Bft)
01.07.2012 12:15 27,9 C 42 % 0,0 l/m 7,1 km/h (2 Bft) S-SW 202 13,8 C 28,4 C 8,2 km/h (2 Bft)
01.07.2012 12:20 27,6 C 44 % 0,0 l/m 5,8 km/h (2 Bft) S 180 14,2 C 28,9 C 6,3 km/h (2 Bft)
01.07.2012 12:25 27,6 C 43 % 0,0 l/m 5,6 km/h (1 Bft) W-SW 247 13,9 C 29,0 C 6,0 km/h (2 Bft)
01.07.2012 12:30 27,5 C 45 % 0,0 l/m 6,1 km/h (2 Bft) S 180 14,5 C 29,1 C 11,6 km/h (2 Bft)
01.07.2012 12:35 28,0 C 42 % 0,0 l/m 6,1 km/h (2 Bft) W 270 13,9 C 29,0 C 5,5 km/h (1 Bft)
01.07.2012 12:40 27,7 C 43 % 0,0 l/m 7,1 km/h (2 Bft) W 270 14,0 C 28,9 C 11,9 km/h (2 Bft)
01.07.2012 12:45 28,0 C 43 % 0,0 l/m 6,3 km/h (2 Bft) W 270 14,2 C 28,9 C 4,0 km/h (1 Bft)
01.07.2012 12:50 27,6 C 44 % 0,0 l/m 6,9 km/h (2 Bft) W-SW 247 14,2 C 29,0 C 19,6 km/h (3 Bft)
01.07.2012 12:55 28,1 C 43 % 0,0 l/m 7,1 km/h (2 Bft) S-SW 202 14,3 C 28,9 C 10,1 km/h (2 Bft)
01.07.2012 13:00 28,3 C 43 % 0,0 l/m 7,2 km/h (2 Bft) S 180 14,5 C 29,1 C 3,5 km/h (1 Bft)
01.07.2012 13:05 28,5 C 40 % 0,0 l/m 6,3 km/h (2 Bft) S 180 13,6 C 29,7 C 9,0 km/h (2 Bft)
01.07.2012 13:10 28,3 C 44 % 0,0 l/m 5,1 km/h (1 Bft) SW 225 14,9 C 30,0 C 6,4 km/h (2 Bft)
01.07.2012 13:15 28,1 C 43 % 0,0 l/m 6,0 km/h (2 Bft) S 180 14,3 C 29,9 C 4,7 km/h (1 Bft)
01.07.2012 13:20 27,5 C 45 % 0,0 l/m 6,4 km/h (2 Bft) W-SW 247 14,5 C 29,3 C 8,7 km/h (2 Bft)
01.07.2012 13:25 26,5 C 48 % 0,0 l/m 7,4 km/h (2 Bft) S 180 14,6 C 28,4 C 7,7 km/h (2 Bft)
01.07.2012 13:30 26,6 C 48 % 0,0 l/m 9,0 km/h (2 Bft) SO 135 14,7 C 27,6 C 11,4 km/h (2 Bft)
01.07.2012 13:35 26,1 C 47 % 0,0 l/m 8,9 km/h (2 Bft) W-SW 247 13,9 C 27,1 C 7,7 km/h (2 Bft)
01.07.2012 13:40 25,8 C 49 % 0,0 l/m 8,4 km/h (2 Bft) S-SO 157 14,3 C 26,6 C 6,0 km/h (2 Bft)
01.07.2012 13:45 25,6 C 49 % 0,0 l/m 7,9 km/h (2 Bft) W 270 14,1 C 26,4 C 5,6 km/h (1 Bft)
01.07.2012 13:50 25,6 C 51 % 0,0 l/m 5,8 km/h (2 Bft) W-SW 247 14,7 C 26,6 C 6,4 km/h (2 Bft)
01.07.2012 13:55 25,3 C 52 % 0,0 l/m 5,8 km/h (2 Bft) S 180 14,7 C 26,4 C 11,7 km/h (2 Bft)
01.07.2012 14:00 23,1 C 62 % 0,0 l/m 9,5 km/h (2 Bft) S 180 15,4 C 24,0 C 19,8 km/h (3 Bft)
01.07.2012 14:05 22,6 C 66 % 0,0 l/m 10,9 km/h (2 Bft) S-SO 157 15,9 C 22,6 C 11,4 km/h (2 Bft)
01.07.2012 14:10 22,1 C 67 % 0,0 l/m 10,1 km/h (2 Bft) O-SO 112 15,7 C 21,6 C 10,6 km/h (2 Bft)
01.07.2012 14:15 22,0 C 68 % 0,0 l/m 9,7 km/h (2 Bft) S 180 15,8 C 21,3 C 10,8 km/h (2 Bft)
01.07.2012 14:20 21,5 C 69 % 0,0 l/m 10,0 km/h (2 Bft) S-SO 157 15,6 C 20,6 C 13,2 km/h (3 Bft)
01.07.2012 14:25 21,2 C 70 % 0,0 l/m 10,0 km/h (2 Bft) S-SO 157 15,5 C 20,3 C 6,1 km/h (2 Bft)
01.07.2012 14:30 20,9 C 70 % 0,0 l/m 9,3 km/h (2 Bft) S 180 15,2 C 20,1 C 20,8 km/h (4 Bft)
01.07.2012 14:35 20,9 C 71 % 0,0 l/m 8,4 km/h (2 Bft) O-SO 112 15,4 C 20,3 C 8,2 km/h (2 Bft)
01.07.2012 14:40 20,9 C 71 % 0,0 l/m 7,2 km/h (2 Bft) S 180 15,4 C 20,7 C 5,6 km/h (1 Bft)
01.07.2012 14:45 20,7 C 71 % 0,0 l/m 7,4 km/h (2 Bft) SO 135 15,2 C 20,6 C 7,1 km/h (2 Bft)
01.07.2012 14:50 20,1 C 73 % 0,0 l/m 8,5 km/h (2 Bft) S 180 15,1 C 19,7 C 13,5 km/h (3 Bft)
01.07.2012 14:55 19,6 C 74 % 0,0 l/m 9,0 km/h (2 Bft) SO 135 14,8 C 19,1 C 15,6 km/h (3 Bft)
01.07.2012 15:00 19,3 C 75 % 0,0 l/m 9,0 km/h (2 Bft) SO 135 14,8 C 18,4 C 9,7 km/h (2 Bft)
01.07.2012 15:05 19,3 C 75 % 0,0 l/m 7,7 km/h (2 Bft) SO 135 14,8 C 18,8 C 11,4 km/h (2 Bft)
01.07.2012 15:10 19,0 C 74 % 0,0 l/m 7,2 km/h (2 Bft) SO 135 14,3 C 18,9 C 5,6 km/h (1 Bft)
01.07.2012 15:15 18,9 C 75 % 0,0 l/m 7,1 km/h (2 Bft) S-SO 157 14,4 C 18,7 C 6,1 km/h (2 Bft)
01.07.2012 15:20 18,6 C 75 % 0,0 l/m 5,0 km/h (1 Bft) O-SO 112 14,1 C 18,8 C 5,5 km/h (1 Bft)
01.07.2012 15:25 18,5 C 75 % 0,0 l/m 5,1 km/h (1 Bft) S-SO 157 14,0 C 18,6 C 5,8 km/h (2 Bft)
01.07.2012 15:30 18,5 C 75 % 0,0 l/m 4,5 km/h (1 Bft) O-SO 112 14,0 C 18,4 C 7,6 km/h (2 Bft)
01.07.2012 15:35 18,4 C 76 % 0,0 l/m 4,8 km/h (1 Bft) O-SO 112 14,1 C 18,3 C 7,1 km/h (2 Bft)
01.07.2012 15:40 18,3 C 76 % 0,0 l/m 5,0 km/h (1 Bft) SO 135 14,0 C 18,1 C 2,7 km/h (1 Bft)
01.07.2012 15:45 18,3 C 77 % 0,0 l/m 4,7 km/h (1 Bft) SO 135 14,2 C 18,0 C 4,0 km/h (1 Bft)
01.07.2012 15:50 18,3 C 77 % 0,0 l/m 3,5 km/h (1 Bft) S-SW 202 14,2 C 18,1 C 5,1 km/h (1 Bft)
01.07.2012 15:55 18,3 C 77 % 0,0 l/m 3,2 km/h (1 Bft) O-SO 112 14,2 C 18,1 C 6,3 km/h (2 Bft)
01.07.2012 16:00 18,2 C 77 % 0,0 l/m 4,0 km/h (1 Bft) O-SO 112 14,1 C 18,1 C 6,9 km/h (2 Bft)
01.07.2012 16:05 18,2 C 77 % 0,0 l/m 4,0 km/h (1 Bft) S 180 14,1 C 18,1 C 1,9 km/h (1 Bft)
01.07.2012 16:10 18,1 C 77 % 0,0 l/m 3,7 km/h (1 Bft) O-SO 112 14,0 C 18,0 C 2,1 km/h (1 Bft)
01.07.2012 16:15 18,1 C 77 % 0,0 l/m 3,2 km/h (1 Bft) O 90 14,0 C 18,0 C 2,6 km/h (1 Bft)
01.07.2012 16:20 18,0 C 77 % 0,0 l/m 2,1 km/h (1 Bft) S-SO 157 13,9 C 18,0 C 2,7 km/h (1 Bft)
01.07.2012 16:25 17,9 C 77 % 0,0 l/m 1,9 km/h (1 Bft) O-SO 112 13,8 C 18,0 C 6,4 km/h (2 Bft)
01.07.2012 16:30 17,9 C 78 % 0,0 l/m 2,4 km/h (1 Bft) S-SO 157 14,0 C 17,9 C 3,2 km/h (1 Bft)
01.07.2012 16:35 17,8 C 78 % 0,0 l/m 3,5 km/h (1 Bft) SO 135 13,9 C 17,8 C 6,9 km/h (2 Bft)
01.07.2012 16:40 17,8 C 78 % 0,0 l/m 3,9 km/h (1 Bft) SO 135 13,9 C 17,7 C 4,5 km/h (1 Bft)
01.07.2012 16:45 17,7 C 79 % 0,0 l/m 4,0 km/h (1 Bft) SO 135 14,0 C 17,6 C 6,9 km/h (2 Bft)
01.07.2012 16:50 17,6 C 79 % 0,0 l/m 5,0 km/h (1 Bft) S 180 13,9 C 17,3 C 5,5 km/h (1 Bft)
01.07.2012 16:55 17,4 C 79 % 0,0 l/m 5,3 km/h (1 Bft) SO 135 13,7 C 17,1 C 5,1 km/h (1 Bft)
01.07.2012 17:00 17,1 C 81 % 0,0 l/m 4,2 km/h (1 Bft) SO 135 13,8 C 16,7 C 3,9 km/h (1 Bft)
01.07.2012 17:05 16,9 C 81 % 0,0 l/m 5,3 km/h (1 Bft) S 180 13,6 C 16,5 C 11,6 km/h (2 Bft)
01.07.2012 17:10 16,3 C 81 % 0,0 l/m 7,4 km/h (2 Bft) S-SW 202 13,0 C 15,4 C 7,9 km/h (2 Bft)
01.07.2012 17:15 15,9 C 83 % 0,0 l/m 7,9 km/h (2 Bft) S-SO 157 13,0 C 14,5 C 8,4 km/h (2 Bft)
01.07.2012 17:20 15,6 C 85 % 0,0 l/m 6,4 km/h (2 Bft) SO 135 13,1 C 15,1 C 10,8 km/h (2 Bft)
01.07.2012 17:25 15,4 C 86 % 0,0 l/m 6,6 km/h (2 Bft) S-SO 157 13,1 C 14,8 C 10,3 km/h (2 Bft)
01.07.2012 17:30 15,2 C 87 % 0,7 l/m 7,4 km/h (2 Bft) S-SO 157 13,0 C 14,1 C 10,5 km/h (2 Bft)
01.07.2012 17:35 15,0 C 87 % 0,0 l/m 7,2 km/h (2 Bft) O-SO 112 12,9 C 14,0 C 6,8 km/h (2 Bft)
01.07.2012 17:40 15,0 C 88 % 0,0 l/m 6,8 km/h (2 Bft) O 90 13,0 C 14,3 C 6,1 km/h (2 Bft)
01.07.2012 17:45 14,9 C 89 % 0,0 l/m 6,6 km/h (2 Bft) O-NO 67 13,1 C 14,4 C 6,8 km/h (2 Bft)
01.07.2012 17:50 14,8 C 89 % 0,0 l/m 5,8 km/h (2 Bft) SO 135 13,0 C 14,4 C 11,9 km/h (2 Bft)
01.07.2012 17:55 14,7 C 89 % 0,0 l/m 6,3 km/h (2 Bft) S-SW 202 12,9 C 14,3 C 6,3 km/h (2 Bft)
01.07.2012 18:00 14,7 C 89 % 0,0 l/m 6,3 km/h (2 Bft) SO 135 12,9 C 14,2 C 6,3 km/h (2 Bft)
01.07.2012 18:05 14,6 C 89 % 0,0 l/m 4,5 km/h (1 Bft) O 90 12,8 C 14,2 C 0,0 km/h (0 Bft)
01.07.2012 18:10 14,5 C 89 % 0,7 l/m 2,7 km/h (1 Bft) O-SO 112 12,7 C 14,2 C 0,0 km/h (0 Bft)
01.07.2012 18:15 14,5 C 89 % 0,0 l/m 2,3 km/h (1 Bft) N-NO 22 12,7 C 14,2 C 2,7 km/h (1 Bft)
01.07.2012 18:20 14,3 C 90 % 0,0 l/m 1,0 km/h (0 Bft) N 360 12,7 C 14,1 C 0,0 km/h (0 Bft)
01.07.2012 18:25 14,4 C 90 % 0,0 l/m 1,3 km/h (1 Bft) SO 135 12,8 C 14,1 C 5,5 km/h (1 Bft)
01.07.2012 18:30 14,6 C 90 % 0,0 l/m 2,4 km/h (1 Bft) W-SW 247 13,0 C 14,1 C 3,2 km/h (1 Bft)
01.07.2012 18:35 14,8 C 90 % 0,0 l/m 2,3 km/h (1 Bft) O-NO 67 13,2 C 14,3 C 2,6 km/h (1 Bft)
01.07.2012 18:40 14,7 C 90 % 0,0 l/m 2,1 km/h (1 Bft) O-SO 112 13,1 C 14,4 C 3,1 km/h (1 Bft)
01.07.2012 18:45 14,6 C 90 % 0,0 l/m 1,9 km/h (1 Bft) SO 135 13,0 C 14,4 C 0,0 km/h (0 Bft)
01.07.2012 18:50 14,5 C 90 % 0,0 l/m 0,6 km/h (0 Bft) W-SW 247 12,9 C 14,3 C 0,0 km/h (0 Bft)
01.07.2012 18:55 14,6 C 90 % 0,0 l/m 0,8 km/h (0 Bft) O 90 13,0 C 14,2 C 2,4 km/h (1 Bft)
01.07.2012 19:00 14,4 C 90 % 0,0 l/m 0,5 km/h (0 Bft) O 90 12,8 C 14,2 C 0,0 km/h (0 Bft)
01.07.2012 19:05 14,4 C 90 % 0,0 l/m 0,3 km/h (0 Bft) O 90 12,8 C 14,2 C 0,0 km/h (0 Bft)
01.07.2012 19:10 14,5 C 90 % 0,7 l/m 0,3 km/h (0 Bft) O-SO 112 12,9 C 14,2 C 2,4 km/h (1 Bft)
01.07.2012 19:15 14,5 C 90 % 0,0 l/m 0,6 km/h (0 Bft) N-NO 22 12,9 C 14,2 C 0,0 km/h (0 Bft)
01.07.2012 19:20 14,5 C 91 % 0,0 l/m 0,5 km/h (0 Bft) N-NW 337 13,0 C 14,3 C 0,0 km/h (0 Bft)
01.07.2012 19:25 14,5 C 91 % 0,0 l/m 0,3 km/h (0 Bft) W 270 13,0 C 14,4 C 0,0 km/h (0 Bft)
01.07.2012 19:30 14,7 C 91 % 0,0 l/m 0,3 km/h (0 Bft) N-NW 337 13,2 C 14,6 C 0,0 km/h (0 Bft)
01.07.2012 19:35 14,8 C 91 % 0,0 l/m 0,6 km/h (0 Bft) N-NW 337 13,3 C 14,8 C 1,8 km/h (1 Bft)
01.07.2012 19:40 14,7 C 91 % 0,0 l/m 0,5 km/h (0 Bft) N 360 13,2 C 14,9 C 0,0 km/h (0 Bft)
01.07.2012 19:45 14,7 C 91 % 0,0 l/m 0,3 km/h (0 Bft) N-NW 337 13,2 C 15,0 C 1,9 km/h (1 Bft)
01.07.2012 19:50 14,6 C 91 % 0,0 l/m 0,2 km/h (0 Bft) N 360 13,1 C 15,0 C 0,0 km/h (0 Bft)
01.07.2012 19:55 14,6 C 91 % 0,0 l/m 0,2 km/h (0 Bft) N 360 13,1 C 15,0 C 0,0 km/h (0 Bft)
01.07.2012 20:00 14,6 C 91 % 0,0 l/m 0,2 km/h (0 Bft) SO 135 13,1 C 15,0 C 0,0 km/h (0 Bft)
01.07.2012 20:05 14,5 C 91 % 0,0 l/m 0,0 km/h (0 Bft) N 360 13,0 C 15,0 C 0,0 km/h (0 Bft)
01.07.2012 20:10 14,5 C 91 % 0,0 l/m 0,0 km/h (0 Bft) S 180 13,0 C 14,8 C 0,0 km/h (0 Bft)
01.07.2012 20:15 14,6 C 91 % 0,0 l/m 0,0 km/h (0 Bft) O-SO 112 13,1 C 14,8 C 0,0 km/h (0 Bft)
01.07.2012 20:20 14,7 C 91 % 0,0 l/m 0,2 km/h (0 Bft) NO 45 13,2 C 15,0 C 0,0 km/h (0 Bft)
01.07.2012 20:25 14,7 C 91 % 0,0 l/m 0,5 km/h (0 Bft) W-SW 247 13,2 C 15,0 C 2,7 km/h (1 Bft)
01.07.2012 20:30 14,6 C 91 % 0,0 l/m 0,6 km/h (0 Bft) N 360 13,1 C 15,0 C 0,0 km/h (0 Bft)
01.07.2012 20:35 14,4 C 90 % 0,0 l/m 1,1 km/h (1 Bft) W-NW 292 12,8 C 14,9 C 2,1 km/h (1 Bft)
01.07.2012 20:40 14,3 C 90 % 0,0 l/m 1,3 km/h (1 Bft) W-NW 292 12,7 C 14,8 C 1,6 km/h (1 Bft)
01.07.2012 20:45 14,4 C 90 % 0,0 l/m 1,6 km/h (1 Bft) O-SO 112 12,8 C 14,7 C 2,9 km/h (1 Bft)
01.07.2012 20:50 14,3 C 90 % 0,0 l/m 1,3 km/h (1 Bft) O 90 12,7 C 14,6 C 2,6 km/h (1 Bft)
01.07.2012 20:55 14,2 C 90 % 0,0 l/m 0,8 km/h (0 Bft) NO 45 12,6 C 14,5 C 0,0 km/h (0 Bft)
01.07.2012 21:00 14,2 C 90 % 0,0 l/m 0,5 km/h (0 Bft) S 180 12,6 C 14,4 C 0,0 km/h (0 Bft)
01.07.2012 21:05 14,1 C 90 % 0,0 l/m 0,6 km/h (0 Bft) O 90 12,5 C 14,3 C 0,0 km/h (0 Bft)
01.07.2012 21:10 14,1 C 91 % 0,0 l/m 0,5 km/h (0 Bft) N 360 12,7 C 14,2 C 0,0 km/h (0 Bft)
01.07.2012 21:15 14,1 C 91 % 0,0 l/m 0,2 km/h (0 Bft) N 360 12,7 C 14,2 C 1,9 km/h (1 Bft)
01.07.2012 21:20 14,1 C 91 % 0,0 l/m 0,3 km/h (0 Bft) N-NO 22 12,7 C 14,1 C 0,0 km/h (0 Bft)
01.07.2012 21:25 14,1 C 91 % 0,0 l/m 0,3 km/h (0 Bft) N-NO 22 12,7 C 14,0 C 0,0 km/h (0 Bft)
01.07.2012 21:30 14,0 C 91 % 0,0 l/m 0,0 km/h (0 Bft) N 360 12,6 C 14,0 C 0,0 km/h (0 Bft)
01.07.2012 21:35 14,0 C 91 % 0,0 l/m 0,2 km/h (0 Bft) N 360 12,6 C 14,0 C 0,0 km/h (0 Bft)
01.07.2012 21:40 14,1 C 91 % 0,0 l/m 0,3 km/h (0 Bft) O 90 12,7 C 14,0 C 0,0 km/h (0 Bft)
01.07.2012 21:45 14,1 C 91 % 0,0 l/m 0,6 km/h (0 Bft) N 360 12,7 C 14,1 C 1,9 km/h (1 Bft)
01.07.2012 21:50 14,1 C 91 % 0,0 l/m 1,3 km/h (1 Bft) N 360 12,7 C 14,2 C 1,8 km/h (1 Bft)
01.07.2012 21:55 14,1 C 91 % 0,0 l/m 1,4 km/h (1 Bft) N 360 12,7 C 14,2 C 2,6 km/h (1 Bft)
01.07.2012 22:00 14,0 C 90 % 0,0 l/m 1,3 km/h (1 Bft) N 360 12,4 C 14,2 C 0,0 km/h (0 Bft)
01.07.2012 22:05 14,0 C 90 % 0,0 l/m 1,3 km/h (1 Bft) N-NW 337 12,4 C 14,2 C 0,0 km/h (0 Bft)
01.07.2012 22:10 14,0 C 91 % 0,0 l/m 0,6 km/h (0 Bft) O-NO 67 12,6 C 14,2 C 0,0 km/h (0 Bft)
01.07.2012 22:15 14,0 C 91 % 0,0 l/m 0,3 km/h (0 Bft) N 360 12,6 C 14,1 C 0,0 km/h (0 Bft)
01.07.2012 22:20 14,1 C 91 % 0,0 l/m 0,0 km/h (0 Bft) SO 135 12,7 C 14,1 C 0,0 km/h (0 Bft)
01.07.2012 22:25 14,1 C 91 % 0,0 l/m 0,0 km/h (0 Bft) W-NW 292 12,7 C 14,1 C 0,0 km/h (0 Bft)
01.07.2012 22:30 14,0 C 91 % 0,0 l/m 0,2 km/h (0 Bft) N 360 12,6 C 14,1 C 0,0 km/h (0 Bft)
01.07.2012 22:35 14,0 C 91 % 0,0 l/m 0,2 km/h (0 Bft) N 360 12,6 C 14,0 C 0,0 km/h (0 Bft)
01.07.2012 22:40 13,9 C 91 % 0,0 l/m 0,2 km/h (0 Bft) S 180 12,5 C 14,0 C 0,0 km/h (0 Bft)
01.07.2012 22:45 13,9 C 91 % 0,0 l/m 0,3 km/h (0 Bft) O 90 12,5 C 13,9 C 0,0 km/h (0 Bft)
01.07.2012 22:50 13,7 C 91 % 0,0 l/m 0,3 km/h (0 Bft) S 180 12,3 C 13,8 C 0,0 km/h (0 Bft)
01.07.2012 22:55 13,7 C 91 % 0,0 l/m 0,5 km/h (0 Bft) S 180 12,3 C 13,7 C 0,0 km/h (0 Bft)
01.07.2012 23:00 13,6 C 91 % 0,0 l/m 0,5 km/h (0 Bft) O-SO 112 12,2 C 13,6 C 0,0 km/h (0 Bft)
01.07.2012 23:05 13,5 C 91 % 0,0 l/m 0,2 km/h (0 Bft) S 180 12,1 C 13,6 C 1,6 km/h (1 Bft)
01.07.2012 23:10 13,5 C 91 % 0,0 l/m 0,0 km/h (0 Bft) NO 45 12,1 C 13,3 C 0,0 km/h (0 Bft)
01.07.2012 23:15 13,6 C 91 % 0,0 l/m 0,2 km/h (0 Bft) NO 45 12,2 C 13,3 C 3,2 km/h (1 Bft)
01.07.2012 23:20 13,6 C 91 % 0,0 l/m 0,5 km/h (0 Bft) N 360 12,2 C 13,4 C 0,0 km/h (0 Bft)
01.07.2012 23:25 13,6 C 91 % 0,0 l/m 0,5 km/h (0 Bft) W-NW 292 12,2 C 13,4 C 0,0 km/h (0 Bft)
01.07.2012 23:30 13,7 C 92 % 0,0 l/m 0,3 km/h (0 Bft) N-NO 22 12,4 C 13,4 C 0,0 km/h (0 Bft)
01.07.2012 23:35 13,8 C 92 % 0,0 l/m 0,2 km/h (0 Bft) NO 45 12,5 C 13,4 C 0,0 km/h (0 Bft)
01.07.2012 23:40 13,8 C 92 % 0,0 l/m 0,0 km/h (0 Bft) N-NO 22 12,5 C 13,6 C 0,0 km/h (0 Bft)
01.07.2012 23:45 13,8 C 92 % 0,0 l/m 0,0 km/h (0 Bft) NO 45 12,5 C 13,6 C 1,8 km/h (1 Bft)
01.07.2012 23:50 13,9 C 92 % 0,0 l/m 0,0 km/h (0 Bft) SO 135 12,6 C 13,7 C 0,0 km/h (0 Bft)
01.07.2012 23:55 13,9 C 92 % 0,0 l/m 0,0 km/h (0 Bft) N 360 12,6 C 13,8 C 0,0 km/h (0 Bft)
_ Min-Zeit 23:10 13:05 - 23:55 - - 05:45 23:15 23:55
Minimum _ 13,5 C 40 % - 0,0 km/h (0 Bft) - - 11,2 C 13,3 C 0,0 km/h (0 Bft)
_ Max-Zeit 13:05 23:55 19:10 14:05 - - 14:05 13:10 14:30
Maximum _ 28,5 C 92 % 0,7 l/m 10,9 km/h
S-SO (2 Bft)
- - 15,9 C 30,0 C 20,8 km/h
S (4 Bft)
Durchschnitt _ 18,7 C 73 % #2,1 l/m 3,1 km/h (1 Bft) SO - 13,4 C 19,0 C 3,9 km/h (1 Bft)